Regional Weather Roundup
Issued by NWS

Home | Current Version | Previous Version | Text Only | Print | Product List | Glossary Off
Versions: 1 2 3 4 5 6 7 8 9 10 11 12 13 14 15 16 17 18 19 20 21 22 23 24 25 26 27 28 29 30 31 32 33 34 35 36 37 38 39 40 41 42 43 44 45 46 47 48 49 50

486
ASUS43 KIND 030959
RWRIN

WEATHER ROUNDUP FOR INDIANA
NATIONAL WEATHER SERVICE INDIANAPOLIS IN
600 AM EDT TUE MAY 03 2016

NOTE: "FAIR" INDICATES FEW OR NO CLOUDS BELOW 12,000 FEET WITH NO
SIGNIFICANT WEATHER AND/OR OBSTRUCTIONS TO VISIBILITY.

* - STATION DOES NOT REPORT WEATHER SUCH AS PRECIPITATION OR FOG.

+ - STATION NOT QUALITY CONTROLLED BY THE NATIONAL WEATHER SERVICE.
    USE DATA WITH CAUTION...ESPECIALLY DEWPOINT AND RELATIVE
    HUMIDITY OBSERVATIONS.

INZ001>003-010>013-019-020-031100-
NORTHWEST INDIANA

CITY           SKY/WX    TMP DP  RH WIND       PRES   REMARKS
GARY /AIRPORT/ PTCLDY    37  37 100 W3        29.98S
RENSSELAER +   CLOUDY    46  43  87 CALM      29.96S

$$

LMZ046-743>745-031100-
SOUTHERN LAKE MICHIGAN

STATION/POSITION TIME  TEMP    WIND        PRES    WAVE
                       AIR SEA DIR/SP/G            HT
                 (UTC) (F)     (DEG/KT/KT) (MB)    (FT)
BURNS HARBOR     0902   47     350/  4/  7 1015.6S
MICHIGAN CITY    0900   44     300/  4/  4   N/A

$$

INZ004-005-014>016-021>024-031100-
NORTH CENTRAL INDIANA

CITY           SKY/WX    TMP DP  RH WIND       PRES   REMARKS
GOSHEN         CLOUDY    48  46  93 CALM      29.95S
PERU/GRISSOM   DRIZZLE   48  48 100 N6        29.93R
SOUTH BEND     PTCLDY    41  39  93 N3        29.96S

$$

INZ006>009-017-018-025>027-031100-
NORTHEAST INDIANA

CITY           SKY/WX    TMP DP  RH WIND       PRES   REMARKS
ANGOLA *+      CLOUDY    46  39  76 CALM      29.94S
FORT WAYNE     CLOUDY    49  47  93 N3        29.94S FOG

$$

INZ028-029-035-036-043>045-051>053-031100-
WEST CENTRAL INDIANA

CITY           SKY/WX    TMP DP  RH WIND       PRES   REMARKS
CRAWFORDSVL +  CLOUDY    47  47 100 N6        29.94F
GREENCASTLE +  CLOUDY    50  50 100 N6        29.94S
LAFAYETTE      CLOUDY    48  45  89 NW5       29.95S
TERRE HAUTE    CLOUDY    51  47  86 NW7       29.95S

$$

INZ030>032-037>040-046>048-054>057-064-065-031100-
CENTRAL INDIANA

CITY           SKY/WX    TMP DP  RH WIND       PRES   REMARKS
INDIANAPOLIS   LGT RAIN  50  49  96 NW8       29.90F FOG
-EAGLE CREEK   CLOUDY    51  50  96 N6        29.91F
KOKOMO *+      CLOUDY    48  45  87 N7        29.93S
SHELBYVILLE    LGT RAIN  53  50  89 NE6       29.90S FOG

$$

INZ033-034-041-042-049-050-058-059-031100-
EAST CENTRAL INDIANA

CITY           SKY/WX    TMP DP  RH WIND       PRES   REMARKS
MUNCIE         CLOUDY    51  46  83 NE7       29.92S

$$

INZ060-061-067>069-081>083-085>088-031100-
SOUTHWEST INDIANA

CITY           SKY/WX    TMP DP  RH WIND       PRES   REMARKS
EVANSVILLE     CLOUDY    53  49  86 NW5       29.96R
HUNTINGBURG *+ CLOUDY    50  46  87 NW5       29.94F

$$

INZ062-063-066-070>080-084-089>092-031100-
SOUTH CENTRAL AND SOUTHEAST INDIANA

CITY           SKY/WX    TMP DP  RH WIND       PRES   REMARKS
BLOOMINGTON    CLOUDY    51  48  89 NW5       29.93S
MADISON *+     CLOUDY    52  50  93 NW3       29.93S
SEYMOUR +      CLOUDY    54  50  87 CALM      29.92F

$$





USA.gov is the U.S. government's official web portal to all federal, state and local government web resources and services.